Regional Weather Roundup
Issued by NWS

Current Version | Previous Version | Text Only | Print | Product List | Glossary On
Versions: 1 2 3 4 5 6 7 8 9 10 11 12 13 14 15 16 17 18 19 20 21 22 23 24 25 26 27 28 29 30 31 32 33 34 35 36 37 38 39 40 41 42 43 44 45 46 47 48 49 50
000
ASUS45 KABQ 242110
RWRNM
NEW MEXICO REGIONAL WEATHER ROUNDUP
NATIONAL WEATHER SERVICE ALBUQUERQUE NM
200 PM MST TUE JAN 24 2017

NOTE: "FAIR" MEANS FEW OR NO CLOUDS BELOW 12,000 FEET AGL WITH NO
       SIGNIFICANT WEATHER OR OBSTRUCTIONS TO VISION.

      THIS PRODUCT IS RELEASED AS TWO VERSIONS.  ONE VERSION NEAR
      THE TOP OF THE HOUR CONTAINING PRELIMINARY DATA FROM ALBUQUERQUE
      AND OTHER STATIONS.  A FINAL VERSION WITH ADDITIONAL DATA IS
      ISSUED ABOUT 10 MINUTES AFTER THE HOUR.

NMZ501-503-504-510>518-242200-
NORTHWEST PLATEAU/NORTHCENTRAL MOUNTAINS

CITY           SKY/WX    TMP DP  RH WIND       PRES   REMARKS
FARMINGTON     CLOUDY    33  23  66 SW21G26   29.70S WCI  21
LOS ALAMOS     LGT SNOW  29  17  59 SW17      29.69S WCI  17
SANTA FE       PTSUNNY   38  18  44 W23G32    29.68S WCI  27
TAOS           FAIR      28  12  50 W23G31    29.61S WCI  14
ANGEL FIRE     CLOUDY    22  14  69 W17G38    29.60R HAZE    WCI   8

$$
NMZ402-403-502-505>509-242200-
WESTCENTRAL MOUNTAINS/SOUTHWEST MOUNTAINS

CITY           SKY/WX    TMP DP  RH WIND       PRES   REMARKS
GALLUP         PTSUNNY   29  23  78 SW18G25   29.77S WCI  16
GRANTS         PTSUNNY   30  17  58 W17G26    29.77F WCI  19
SILVER CITY    FAIR      42  20  41 W29G36    29.85R

$$
NMZ407-409-411-412-242200-
SOUTHERN DESERTS

CITY           SKY/WX    TMP DP  RH WIND       PRES   REMARKS
DEMING         FAIR      48  21  34 W24G33    29.84F
LAS CRUCES     FAIR      49  20  32 W24G35    29.84F
HOLLOMAN AFB   FAIR      51  18  27 SW31G37   29.83S
ALAMOGORDO     FAIR      52  16  24 W23       29.81F
T OR C         FAIR      48  14  25 W23G30    29.78S

$$
NMZ519>523-242200-
CENTRAL VALLEYS/CENTRAL HIGHLANDS

CITY           SKY/WX    TMP DP  RH WIND       PRES   REMARKS
ALBUQUERQUE    FAIR      41  13  31 W26G40    29.73F
DOUBLE EAGLE   MOSUNNY   37  16  41 SW35G44   29.74R WCI  24
MORIARTY ARPT  FAIR      40  11  31 SW31G38   29.72S WCI  28
CLINES CORNERS PTSUNNY   30  13  49 W37G47    29.68R WCI  14
BELEN          FAIR      43   8  23 W25G33    29.76F
SOCORRO        FAIR      47   2  15 W14       29.77S

$$
NMZ524>526-539-540-242200-
SOUTHCENTRAL MOUNTAINS

CITY           SKY/WX    TMP DP  RH WIND       PRES   REMARKS
RUIDOSO        FAIR      39   5  24 W18G32    29.74S WCI  30

$$
NMZ527>531-242200-
NORTHEAST HIGHLANDS/NORTHEAST PLAINS

CITY           SKY/WX    TMP DP  RH WIND       PRES   REMARKS
LAS VEGAS      PTSUNNY   37   9  31 W28G47    29.63R WCI  25
RATON          FAIR      41  14  33 W25G38    29.51R
CLAYTON        FAIR      50  21  32 W29G40    29.50R

$$
NMZ532>537-242200-
EASTCENTRAL PLAINS

CITY           SKY/WX    TMP DP  RH WIND       PRES   REMARKS
TUCUMCARI      FAIR      53  10  18 W38G51    29.61R
CANNON AFB     FAIR      52  21  30 W30G37    29.63S
CLOVIS AIRPORT FAIR      54  25  32 W30G38    29.64R

$$
NMZ028-029-538-242200-
SOUTHEAST PLAINS

CITY           SKY/WX    TMP DP  RH WIND       PRES   REMARKS
ROSWELL        FAIR      59  15  18 W26G32    29.68S
ARTESIA        FAIR      59  19  21 W33       29.71S
CARLSBAD       FAIR      61  25  25 W37G49    29.69F
HOBBS          SUNNY     59  25  27 SW33G48   29.70S


$$




USA.gov is the U.S. government's official web portal to all federal, state and local government web resources and services.